SCP
-0 -0 0 0 0 0 0 -0 -0 -0 -0 -0 -0 -0 0 0 -0 -0 0 0 0 0 0 0 0 -0 -0 -0 -0 0 -0 -0 -0
-0 -0 -0 0 -0 0 0 0 -0 -0 -0 -0 -0 -0 0 -0 0 0 0 0 0 0 0 0 -0 -0 -0 -0 -0 -0 0 0 0
0 -0 -0 0 -0 -0 -0 0 0 0 0 0 0 0 -0 0 0 0 0 -0 -0 -0 -0 -0 -0 -0 -0 -0 -0 -0 -0 0 -0
0 -0 -0 -0 -0 -0 0 0 0 0 0 0 0 0 0 0 0 0 0 -0 -0 -0 -0 -0 0 0 0 0 -0 -0 -0 -0 0
0 0 0 0 0 0 0 0 0 0 0 0 0 0 0 0 0 0 0 -0 -0 -0 -0 -0 0 0 -0 0 -0 -0 0 0 0
0 0 0 0 0 -0 -0 0 0 0 0 0 0 0 0 -0 -0 -0 -0 -0 -0 -0 -0 -0 -0 0 0 0 0 0 0 -0 -0
-0 0 0 0 1 1 0 0 -0 -0 -0 0 -0 -0 -0 -0 -0 -0 -0 -0 -0 -0 0 0 0 0 0 0 0 0 0 0 0
-0 -0 1 1 1 0 0 0 0 -0 -0 -0 -0 -0 0 0 0 0 0 0 0 0 0 0 0 0 0 0 0 0 0 0 0
0 0 0 1 1 0 0 -0 -0 0 0 0 0 0 0 0 0 0 0 0 0 0 0 0 0 0 0 0 0 0 0 0 0
0 0 1 1 1 0 -0 -0 -0 -0 0 0 0 0 0 0 0 0 0 0 0 0 0 0 0 0 0 0 0 0 0 0 0
0 0 3 1 1 0 0 0 -0 0 0 0 0 0 0 0 0 0 0 0 0 0 0 0 0 0 0 0 0 0 0 0 0
0 1 0 1 1 0 0 -0 0 0 0 0 0 0 0 0 0 0 0 0 0 0 0 0 0 0 0 0 0 0 0 0 0
0 -0 0 1 0 -0 -0 0 0 0 0 0 0 0 0 0 0 0 0 0 0 0 0 0 0 0 0 0 0 0 0 0 0
0 0 0 -0 -0 -0 -0 0 0 0 0 0 0 0 0 0 0 0 0 0 0 0 0 0 0 0 0 0 0 0 0 0 0
0 -0 -0 -0 0 0 0 0 0 0 0 0 0 0 0 0 0 0 0 0 0 0 0 0 0 0 0 0 0 0 0 0 0
1 0 0 0 -0 0 0 0 0 0 0 0 0 0 0 0 0 0 0 0 0 0 0 0 0 0 0 0 0 0 0 0 0
0 0 0 0 0 0 0 0 0 0 0 0 0 0 0 0 0 0 0 0 0 0 0 0 0 0 0 0 0 0 0 0 0
0 0 0 0 0 0 0 0 0 0 0 0 0 0 0 0 0 0 0 0 0 0 0 0 0 0 0 0 0 0 0 0 0
0 0 0 0 0 0 0 0 0 0 0 0 0 0 0 0 0 0 0 0 0 0 0 0 0 0 0 0 0 0 0 0 0
0 0 0 0 0 0 0 0 0 0 0 0 0 0 0 0 0 0 0 0 0 0 0 0 0 0 0 0 0 0 0 0 0
Wind_Speed_500mb
58 52 48 42 41 41 35 35 34 32 30 29 29 25 23 19 16 15 15 14 15 12 13 10 10 9 8 13 18 22 27 32 35
61 61 55 52 43 44 37 40 40 38 25 26 27 26 19 18 16 17 15 13 11 12 12 10 10 7 4 5 11 14 16 24 32
56 67 67 61 43 37 37 35 34 34 22 19 24 23 20 16 14 15 18 16 14 14 13 15 15 10 8 7 7 10 13 17 21
29 67 72 64 53 38 41 42 40 42 30 15 16 24 24 19 20 15 13 11 9 18 19 18 17 13 12 15 16 15 18 18 20
10 39 67 64 63 57 52 53 48 44 36 25 26 26 21 21 18 15 9 8 9 8 12 13 13 12 16 18 19 21 23 26 27
19 18 42 75 72 71 72 56 48 32 35 34 29 30 28 20 15 14 11 10 11 15 12 8 4 5 9 10 14 19 24 29 33
46 18 17 71 81 79 83 64 52 49 50 46 40 30 22 17 14 14 18 20 18 14 14 17 16 14 11 11 11 11 13 15 23
46 27 37 65 84 75 64 47 50 61 59 54 43 32 22 17 14 16 19 20 22 21 20 20 20 20 21 21 22 24 24 20 20
34 38 53 68 60 85 65 37 68 63 64 54 42 29 18 14 14 16 18 20 24 27 28 28 27 28 27 27 24 28 30 33 32
45 45 43 63 64 58 64 82 85 66 50 40 32 23 16 13 12 13 12 14 17 18 20 20 19 21 22 20 20 26 33 39 42
45 43 35 53 47 56 72 76 65 54 43 33 25 20 14 10 10 14 18 20 22 24 26 26 26 27 27 25 24 27 31 34 35
29 24 22 25 53 67 69 70 61 50 43 33 25 16 13 13 14 19 23 26 27 25 25 23 26 27 28 29 28 34 39 41 42
30 19 30 27 47 53 72 62 51 46 38 26 22 16 15 17 19 22 20 16 16 17 16 8 11 9 6 9 20 26 27 30 35
30 17 23 44 79 76 65 54 46 44 30 24 20 18 17 20 22 19 17 14 12 9 7 6 9 9 8 13 18 19 25 28 32
63 70 58 70 74 78 61 55 47 34 25 22 18 19 20 19 17 14 10 7 8 4 8 6 10 11 14 18 23 26 31 34 37
79 87 70 85 94 75 57 44 34 28 21 16 15 16 14 10 5 4 6 8 2 7 7 10 12 15 14 14 21 24 32 37 41
78 76 85 82 73 60 46 35 28 19 14 12 11 9 6 6 3 2 11 16 9 7 7 11 13 12 14 18 25 27 28 26 21
74 72 65 56 50 46 40 31 18 9 7 8 7 6 9 6 4 5 14 13 6 4 12 12 17 25 31 27 31 37 36 36 35
62 56 54 54 48 36 29 22 11 5 9 6 6 8 6 8 5 11 15 14 13 12 10 8 19 29 31 35 40 35 33 30 29
55 51 46 40 34 26 21 11 8 6 5 7 9 11 11 8 1 8 12 10 7 2 5 4 11 22 25 34 42 34 30 27 23
Wind_Direction_500mb
205 193 185 191 192 180 183 187 185 183 181 185 192 200 204 218 223 244 258 252 264 254 267 271 250 249 253 229 221 224 227 229 231
187 191 197 190 187 184 181 188 193 195 180 187 193 196 211 225 237 241 255 260 271 263 267 245 227 242 249 235 225 223 234 236 229
185 181 181 184 182 187 189 198 200 198 203 197 201 195 197 220 229 244 256 262 256 262 277 263 261 239 245 240 242 235 240 241 236
192 183 182 185 182 185 191 205 208 200 202 169 187 192 201 213 230 243 251 262 247 251 267 270 280 269 261 257 256 255 252 250 250
123 203 187 185 185 187 186 184 197 190 212 204 190 190 197 209 218 209 208 238 242 253 240 248 251 257 267 267 264 261 259 259 256
190 168 201 189 183 181 168 168 160 191 203 197 189 179 182 182 183 188 211 244 271 279 269 256 266 251 238 246 261 267 267 267 262
189 165 200 198 184 179 168 178 192 199 187 177 177 178 183 189 201 224 244 257 268 265 259 259 262 259 249 244 251 257 265 270 261
198 154 170 182 180 175 166 160 173 180 179 178 177 181 192 215 242 256 260 264 265 268 269 270 270 265 260 261 271 275 268 268 267
180 150 165 173 175 166 166 186 189 180 179 179 181 188 199 225 252 256 260 264 266 269 269 269 269 270 268 262 259 258 262 265 267
192 156 157 166 181 179 180 174 176 179 177 180 181 188 206 228 249 269 286 288 286 279 276 278 280 278 278 274 271 268 268 268 270
174 157 153 164 185 196 176 173 178 184 184 179 187 197 215 233 259 284 296 293 286 284 281 276 275 275 277 278 278 280 278 276 278
218 142 70 162 174 180 180 171 167 174 180 190 197 205 219 240 262 282 285 282 278 278 282 290 288 283 276 279 286 285 285 288 287
134 107 86 134 223 223 182 171 172 186 185 191 201 214 235 264 285 290 286 282 282 292 308 325 343 358 353 342 310 300 299 299 296
169 197 208 176 215 208 186 180 192 194 192 203 225 244 261 281 289 292 291 289 295 317 336 349 331 333 325 299 295 293 298 305 309
213 188 187 194 203 190 180 184 191 190 197 209 233 263 283 285 287 287 294 295 314 298 288 279 264 268 270 278 281 286 286 288 295
189 184 186 189 186 178 178 182 201 205 216 225 251 269 272 273 271 298 289 291 351 274 337 340 304 302 302 295 303 301 295 286 281
178 184 179 177 177 174 176 192 204 209 215 248 264 261 241 187 179 282 329 346 30 33 20 39 33 18 354 332 323 328 335 344 335
162 168 175 182 184 180 183 188 191 209 247 247 241 217 190 207 253 342 336 339 8 33 29 36 15 4 353 345 356 350 348 348 348
173 175 179 179 178 178 175 174 192 250 265 249 220 186 168 165 117 43 43 67 93 86 62 23 9 8 5 12 1 356 351 352 350
179 178 177 183 184 181 182 194 244 228 213 183 160 129 102 138 124 86 52 67 68 235 262 261 347 11 9 0 357 350 348 358 8
Wind_Speed_850mb
58 52 48 42 41 41 35 35 34 32 30 29 29 25 23 19 16 15 15 14 15 12 13 10 10 9 8 13 18 22 27 32 35
61 61 55 52 43 44 37 40 40 38 25 26 27 26 19 18 16 17 15 13 11 12 12 10 10 7 4 5 11 14 16 24 32
56 67 67 61 43 37 37 35 34 34 22 19 24 23 20 16 14 15 18 16 14 14 13 15 15 10 8 7 7 10 13 17 21
29 67 72 64 53 38 41 42 40 42 30 15 16 24 24 19 20 15 13 11 9 18 19 18 17 13 12 15 16 15 18 18 20
10 39 67 64 63 57 52 53 48 44 36 25 26 26 21 21 18 15 9 8 9 8 12 13 13 12 16 18 19 21 23 26 27
19 18 42 75 72 71 72 56 48 32 35 34 29 30 28 20 15 14 11 10 11 15 12 8 4 5 9 10 14 19 24 29 33
46 18 17 71 81 79 83 64 52 49 50 46 40 30 22 17 14 14 18 20 18 14 14 17 16 14 11 11 11 11 13 15 23
46 27 37 65 84 75 64 47 50 61 59 54 43 32 22 17 14 16 19 20 22 21 20 20 20 20 21 21 22 24 24 20 20
34 38 53 68 60 85 65 37 68 63 64 54 42 29 18 14 14 16 18 20 24 27 28 28 27 28 27 27 24 28 30 33 32
45 45 43 63 64 58 64 82 85 66 50 40 32 23 16 13 12 13 12 14 17 18 20 20 19 21 22 20 20 26 33 39 42
45 43 35 53 47 56 72 76 65 54 43 33 25 20 14 10 10 14 18 20 22 24 26 26 26 27 27 25 24 27 31 34 35
29 24 22 25 53 67 69 70 61 50 43 33 25 16 13 13 14 19 23 26 27 25 25 23 26 27 28 29 28 34 39 41 42
30 19 30 27 47 53 72 62 51 46 38 26 22 16 15 17 19 22 20 16 16 17 16 8 11 9 6 9 20 26 27 30 35
30 17 23 44 79 76 65 54 46 44 30 24 20 18 17 20 22 19 17 14 12 9 7 6 9 9 8 13 18 19 25 28 32
63 70 58 70 74 78 61 55 47 34 25 22 18 19 20 19 17 14 10 7 8 4 8 6 10 11 14 18 23 26 31 34 37
79 87 70 85 94 75 57 44 34 28 21 16 15 16 14 10 5 4 6 8 2 7 7 10 12 15 14 14 21 24 32 37 41
78 76 85 82 73 60 46 35 28 19 14 12 11 9 6 6 3 2 11 16 9 7 7 11 13 12 14 18 25 27 28 26 21
74 72 65 56 50 46 40 31 18 9 7 8 7 6 9 6 4 5 14 13 6 4 12 12 17 25 31 27 31 37 36 36 35
62 56 54 54 48 36 29 22 11 5 9 6 6 8 6 8 5 11 15 14 13 12 10 8 19 29 31 35 40 35 33 30 29
55 51 46 40 34 26 21 11 8 6 5 7 9 11 11 8 1 8 12 10 7 2 5 4 11 22 25 34 42 34 30 27 23
Wind_Direction_850mb
205 193 185 191 192 180 183 187 185 183 181 185 192 200 204 218 223 244 258 252 264 254 267 271 250 249 253 229 221 224 227 229 231
187 191 197 190 187 184 181 188 193 195 180 187 193 196 211 225 237 241 255 260 271 263 267 245 227 242 249 235 225 223 234 236 229
185 181 181 184 182 187 189 198 200 198 203 197 201 195 197 220 229 244 256 262 256 262 277 263 261 239 245 240 242 235 240 241 236
192 183 182 185 182 185 191 205 208 200 202 169 187 192 201 213 230 243 251 262 247 251 267 270 280 269 261 257 256 255 252 250 250
123 203 187 185 185 187 186 184 197 190 212 204 190 190 197 209 218 209 208 238 242 253 240 248 251 257 267 267 264 261 259 259 256
190 168 201 189 183 181 168 168 160 191 203 197 189 179 182 182 183 188 211 244 271 279 269 256 266 251 238 246 261 267 267 267 262
189 165 200 198 184 179 168 178 192 199 187 177 177 178 183 189 201 224 244 257 268 265 259 259 262 259 249 244 251 257 265 270 261
198 154 170 182 180 175 166 160 173 180 179 178 177 181 192 215 242 256 260 264 265 268 269 270 270 265 260 261 271 275 268 268 267
180 150 165 173 175 166 166 186 189 180 179 179 181 188 199 225 252 256 260 264 266 269 269 269 269 270 268 262 259 258 262 265 267
192 156 157 166 181 179 180 174 176 179 177 180 181 188 206 228 249 269 286 288 286 279 276 278 280 278 278 274 271 268 268 268 270
174 157 153 164 185 196 176 173 178 184 184 179 187 197 215 233 259 284 296 293 286 284 281 276 275 275 277 278 278 280 278 276 278
218 142 70 162 174 180 180 171 167 174 180 190 197 205 219 240 262 282 285 282 278 278 282 290 288 283 276 279 286 285 285 288 287
134 107 86 134 223 223 182 171 172 186 185 191 201 214 235 264 285 290 286 282 282 292 308 325 343 358 353 342 310 300 299 299 296
169 197 208 176 215 208 186 180 192 194 192 203 225 244 261 281 289 292 291 289 295 317 336 349 331 333 325 299 295 293 298 305 309
213 188 187 194 203 190 180 184 191 190 197 209 233 263 283 285 287 287 294 295 314 298 288 279 264 268 270 278 281 286 286 288 295
189 184 186 189 186 178 178 182 201 205 216 225 251 269 272 273 271 298 289 291 351 274 337 340 304 302 302 295 303 301 295 286 281
178 184 179 177 177 174 176 192 204 209 215 248 264 261 241 187 179 282 329 346 30 33 20 39 33 18 354 332 323 328 335 344 335
162 168 175 182 184 180 183 188 191 209 247 247 241 217 190 207 253 342 336 339 8 33 29 36 15 4 353 345 356 350 348 348 348
173 175 179 179 178 178 175 174 192 250 265 249 220 186 168 165 117 43 43 67 93 86 62 23 9 8 5 12 1 356 351 352 350
179 178 177 183 184 181 182 194 244 228 213 183 160 129 102 138 124 86 52 67 68 235 262 261 347 11 9 0 357 350 348 358 8